sat.trackr.live / text

‹ back to catalog

GPS BIIRM-8 (PRN 05)

NORAD 35752 · 2009-043A

PAYLOAD ACTIVE UNKNOWN

§ Identity

Operator
Country
US
Launch date
2009-08-17
Launch site
AFETR
Launch vehicle
Mass (kg)
RCS (m²)
6.30

Purposes: nav

External: N2YO · Heavens-Above · Gunter

§ Orbital elements

Epoch: 2026-09-19T19:09:07.822080Z

Period
717.93 min
Inclination
56.2656°
Eccentricity
0.0051319
Mean motion
2.00576743 rev/d
Perigee alt
20,044.8 km
Apogee alt
20,317.3 km
Semi-major
26,559.2 km
B*
0.0000e+0
RAAN
23.7437°
Arg perigee
86.2347°
Mean anomaly
234.0759°
Rev number
12,525

§ Raw data

GPS BIIRM-8 (PRN 05)1 35752U 09043A   26262.79800720 -.00000078  00000+0  00000+0 0  99932 35752  56.2656  23.7437 0051319  86.2347 234.0759  2.00576743125258

JSON: /api/v1/satellites/35752 · /tle

For live sub-satellite position, see the globe view (requires WebGL).

§ Visibility from observer

Set your observer location to see the next 7 days of passes ≥ 10°. The values pass through the URL so the page stays shareable.

No JS? Fill the form by hand. The geolocation button needs JavaScript.